Tracking 19817 objects as of 17-Aug-2019
HD Live streaming from Space Station
objects crossing your sky now

COSMOS 2251 DEB

Track COSMOS 2251 DEB now!
10-day predictions


NORAD ID: 34610
Int'l Code: 1993-036WF
Perigee: 763.5 km
Apogee: 1,069.4 km
Inclination: 74.0 °
Period: 103.2 minutes
Semi major axis: 7287 km
RCS: 0.0054 m2 (small)
Launch date: June 16, 1993
Source: Commonwealth of Independent States (former USSR) (CIS)
Launch site: PLESETSK MISSILE AND SPACE COMPLEX (PKMTR)

Note: This is SATELLITE DEBRIS
aabbcc
Your satellite tracking list
Your tracking list is empty




NASA's NSSDC Master Catalog

Two Line Element Set (TLE):
1 34610U 93036WF  19228.64295836  .00000676  00000-0  42893-3 0  9998
2 34610  74.0279 299.0637 0209893 233.3728 124.7941 13.95543268532981
Source of the keplerian elements: AFSPC